When you browse on this site, cookies collect data to enhance your experience and personalize the content and advertising you see.
Visit our Privacy Policy to learn more. By continuing to use the site, you agree to this use of cookies and data.

Stündliche Wetter Caxias do Sul

Heute, 16 Juli, Donnerstag

Zeit Temperatur Niederschläge Wind Luftdruck Luftfeuchtigkeit
00:00 +4°C° 0 mm 1 m/S 698 mmHg 81%
01:00 +4°C° 0 mm 1 m/S 698 mmHg 80%
02:00 +5°C° 0 mm 1 m/S 698 mmHg 79%
03:00 +5°C° 0 mm 1 m/S 697 mmHg 80%
04:00 +5°C° 0 mm 1 m/S 697 mmHg 78%
05:00 +6°C° 0 mm 1 m/S 697 mmHg 76%
06:00 +7°C° 0 mm 1 m/S 697 mmHg 73%
07:00 +7°C° 0 mm 1 m/S 697 mmHg 73%
08:00 +7°C° 0 mm 1 m/S 698 mmHg 73%
09:00 +8°C° 0 mm 1 m/S 698 mmHg 73%
10:00 +8°C° 0.1 mm 1 m/S 697 mmHg 77%
11:00 +9°C° 0.1 mm 1 m/S 697 mmHg 80%
12:00 +9°C° 0.1 mm 1 m/S 697 mmHg 84%
13:00 +9°C° 0.7 mm 1 m/S 696 mmHg 86%
14:00 +9°C° 0.7 mm 1 m/S 696 mmHg 89%
15:00 +7°C° 0.7 mm 2 m/S 696 mmHg 92%
16:00 +8°C° 4.8 mm 1 m/S 695 mmHg 94%
17:00 +8°C° 4.8 mm 1 m/S 695 mmHg 97%
18:00 +7°C° 4.8 mm 1 m/S 695 mmHg 99%
19:00 +8°C° 3.1 mm 1 m/S 695 mmHg 99%
20:00 +8°C° 3.1 mm 1 m/S 695 mmHg 99%
21:00 +9°C° 3.1 mm 1 m/S 696 mmHg 99%
22:00 +9°C° 0.2 mm 1 m/S 696 mmHg 99%
23:00 +9°C° 0.2 mm 1 m/S 695 mmHg 99%

Morgen, 17 Juli, Freitag

Zeit Temperatur Niederschläge Wind Luftdruck Luftfeuchtigkeit
00:00 +9°C° 0.2 mm 0 m/S 695 mmHg 99%
01:00 +9°C° 0 mm 0 m/S 695 mmHg 99%
02:00 +9°C° 0 mm 0 m/S 695 mmHg 99%
03:00 +9°C° 0 mm 0 m/S 696 mmHg 99%
04:00 +10°C° 0 mm 0 m/S 696 mmHg 99%
05:00 +10°C° 0 mm 0 m/S 696 mmHg 99%
06:00 +10°C° 0 mm 0 m/S 696 mmHg 99%
07:00 +11°C° 0 mm 0 m/S 696 mmHg 99%
08:00 +12°C° 0 mm 1 m/S 697 mmHg 98%
09:00 +12°C° 0 mm 1 m/S 697 mmHg 98%
10:00 +14°C° 0 mm 1 m/S 697 mmHg 94%
11:00 +16°C° 0 mm 1 m/S 697 mmHg 89%
12:00 +19°C° 0 mm 1 m/S 698 mmHg 85%
13:00 +20°C° 0 mm 1 m/S 697 mmHg 82%
14:00 +20°C° 0 mm 1 m/S 697 mmHg 79%
15:00 +21°C° 0 mm 1 m/S 697 mmHg 76%
16:00 +19°C° 0 mm 1 m/S 696 mmHg 83%
17:00 +16°C° 0 mm 0 m/S 696 mmHg 90%
18:00 +14°C° 0 mm 0 m/S 695 mmHg 97%
19:00 +15°C° 0 mm 1 m/S 696 mmHg 98%
20:00 +14°C° 0 mm 1 m/S 696 mmHg 98%
21:00 +14°C° 0 mm 1 m/S 696 mmHg 98%
22:00 +14°C° 0 mm 1 m/S 696 mmHg 98%
23:00 +14°C° 0 mm 1 m/S 696 mmHg 98%

übermorgen, 18 Juli, Samstag

Zeit Temperatur Niederschläge Wind Luftdruck Luftfeuchtigkeit
00:00 +13°C° 0 mm 1 m/S 696 mmHg 98%
01:00 +13°C° 0 mm 1 m/S 696 mmHg 97%
02:00 +13°C° 0 mm 1 m/S 696 mmHg 96%
03:00 +13°C° 0 mm 1 m/S 695 mmHg 96%
04:00 +13°C° 0 mm 1 m/S 695 mmHg 95%
05:00 +13°C° 0 mm 2 m/S 695 mmHg 95%
06:00 +13°C° 0 mm 2 m/S 695 mmHg 95%
07:00 +14°C° 0 mm 2 m/S 696 mmHg 92%
08:00 +15°C° 0 mm 2 m/S 696 mmHg 89%
09:00 +16°C° 0 mm 2 m/S 697 mmHg 87%
10:00 +18°C° 0 mm 2 m/S 697 mmHg 80%
11:00 +20°C° 0 mm 2 m/S 697 mmHg 74%
12:00 +23°C° 0 mm 2 m/S 698 mmHg 67%
13:00 +24°C° 0 mm 2 m/S 697 mmHg 66%
14:00 +24°C° 0 mm 2 m/S 697 mmHg 65%
15:00 +25°C° 0 mm 2 m/S 697 mmHg 63%
16:00 +23°C° 0 mm 2 m/S 696 mmHg 72%
17:00 +21°C° 0 mm 1 m/S 696 mmHg 81%
18:00 +19°C° 0 mm 1 m/S 696 mmHg 90%
19:00 +19°C° 0 mm 1 m/S 696 mmHg 91%
20:00 +18°C° 0 mm 1 m/S 696 mmHg 91%
21:00 +17°C° 0 mm 2 m/S 696 mmHg 91%
22:00 +16°C° 0 mm 2 m/S 696 mmHg 91%
23:00 +16°C° 0 mm 2 m/S 696 mmHg 90%

19 Juli, Sonntag

Zeit Temperatur Niederschläge Wind Luftdruck Luftfeuchtigkeit
00:00 +16°C° 0 mm 2 m/S 696 mmHg 89%
01:00 +16°C° 0 mm 2 m/S 696 mmHg 90%
02:00 +15°C° 0 mm 2 m/S 696 mmHg 90%
03:00 +15°C° 0 mm 2 m/S 696 mmHg 90%
04:00 +15°C° 0 mm 2 m/S 696 mmHg 90%
05:00 +15°C° 0 mm 2 m/S 696 mmHg 90%
06:00 +15°C° 0 mm 2 m/S 696 mmHg 91%
07:00 +15°C° 0 mm 2 m/S 696 mmHg 88%
08:00 +16°C° 0 mm 2 m/S 696 mmHg 85%
09:00 +17°C° 0 mm 2 m/S 697 mmHg 83%
10:00 +19°C° 0 mm 2 m/S 697 mmHg 76%
11:00 +21°C° 0 mm 2 m/S 697 mmHg 69%
12:00 +24°C° 0 mm 3 m/S 697 mmHg 62%
13:00 +24°C° 0 mm 2 m/S 697 mmHg 62%
14:00 +24°C° 0 mm 2 m/S 696 mmHg 61%
15:00 +24°C° 0 mm 2 m/S 696 mmHg 61%
16:00 +21°C° 0 mm 2 m/S 696 mmHg 70%
17:00 +21°C° 0 mm 1 m/S 695 mmHg 80%
18:00 +19°C° 0 mm 1 m/S 695 mmHg 90%
19:00 +18°C° 0 mm 1 m/S 695 mmHg 91%
20:00 +16°C° 0 mm 1 m/S 695 mmHg 93%
21:00 +16°C° 0 mm 1 m/S 695 mmHg 94%
22:00 +16°C° 0 mm 1 m/S 695 mmHg 94%
23:00 +15°C° 0 mm 1 m/S 695 mmHg 93%

20 Juli, Montag

Zeit Temperatur Niederschläge Wind Luftdruck Luftfeuchtigkeit
00:00 +15°C° 0 mm 1 m/S 695 mmHg 93%
01:00 +15°C° 0 mm 1 m/S 695 mmHg 93%
02:00 +15°C° 0 mm 1 m/S 695 mmHg 93%
03:00 +14°C° 0 mm 1 m/S 695 mmHg 93%
04:00 +14°C° 0 mm 1 m/S 695 mmHg 93%
05:00 +14°C° 0 mm 1 m/S 695 mmHg 93%
06:00 +14°C° 0 mm 1 m/S 695 mmHg 94%
07:00 +15°C° 0 mm 1 m/S 695 mmHg 90%
08:00 +16°C° 0 mm 2 m/S 696 mmHg 86%
09:00 +16°C° 0 mm 2 m/S 696 mmHg 82%
10:00 +18°C° 0 mm 2 m/S 696 mmHg 74%
11:00 +20°C° 0 mm 2 m/S 696 mmHg 67%
12:00 +21°C° 0 mm 2 m/S 697 mmHg 59%
13:00 +23°C° 0 mm 2 m/S 696 mmHg 59%
14:00 +23°C° 0 mm 2 m/S 696 mmHg 59%
15:00 +23°C° 0 mm 2 m/S 695 mmHg 59%
16:00 +20°C° 0 mm 2 m/S 695 mmHg 68%
17:00 +19°C° 0 mm 1 m/S 694 mmHg 78%
18:00 +16°C° 0 mm 1 m/S 694 mmHg 87%
19:00 +16°C° 0 mm 1 m/S 694 mmHg 89%
20:00 +15°C° 0 mm 1 m/S 694 mmHg 91%
21:00 +14°C° 0 mm 1 m/S 694 mmHg 92%
22:00 +14°C° 0 mm 1 m/S 694 mmHg 92%
23:00 +14°C° 0 mm 1 m/S 694 mmHg 92%

21 Juli, Dienstag

Zeit Temperatur Niederschläge Wind Luftdruck Luftfeuchtigkeit
00:00 +13°C° 0 mm 1 m/S 694 mmHg 91%
01:00 +13°C° 0 mm 1 m/S 694 mmHg 91%
02:00 +13°C° 0 mm 1 m/S 694 mmHg 91%
03:00 +13°C° 0 mm 1 m/S 694 mmHg 91%
04:00 +13°C° 0 mm 1 m/S 694 mmHg 91%
05:00 +13°C° 0 mm 1 m/S 694 mmHg 90%
06:00 +12°C° 0 mm 1 m/S 694 mmHg 90%
07:00 +13°C° 0 mm 1 m/S 694 mmHg 86%
08:00 +14°C° 0 mm 2 m/S 694 mmHg 82%
09:00 +15°C° 0 mm 2 m/S 695 mmHg 78%
10:00 +17°C° 0 mm 2 m/S 695 mmHg 72%
11:00 +18°C° 0 mm 2 m/S 695 mmHg 67%
12:00 +20°C° 0 mm 2 m/S 695 mmHg 61%
13:00 +21°C° 0 mm 2 m/S 695 mmHg 62%
14:00 +21°C° 0 mm 2 m/S 694 mmHg 62%
15:00 +23°C° 0 mm 2 m/S 694 mmHg 63%
16:00 +21°C° 0 mm 1 m/S 694 mmHg 72%
17:00 +20°C° 0 mm 1 m/S 693 mmHg 80%
18:00 +18°C° 0 mm 1 m/S 693 mmHg 89%
19:00 +16°C° 0 mm 1 m/S 693 mmHg 90%
20:00 +16°C° 0 mm 1 m/S 693 mmHg 91%
21:00 +15°C° 0 mm 1 m/S 693 mmHg 91%
22:00 +15°C° 0 mm 1 m/S 693 mmHg 91%
23:00 +15°C° 0 mm 1 m/S 693 mmHg 91%
Mehr zeigen